Stations météo

réclame
Mon MeteoGroup
Marienberg, Allemagne (10579): Température de l'air & dewpoint: 09.09.2019 12:00:00 - 15.09.2019 12:00:00 (CEST)Marienberg, Allemagne (10579): Température de l'air 5cm & Température de l'air -5cm: 09.09.2019 12:00:00 - 15.09.2019 12:00:00 (CEST)Marienberg, Allemagne (10579): Température de l'air -20cm & Température de l'air -100cm: 09.09.2019 12:00:00 - 15.09.2019 12:00:00 (CEST)Marienberg, Allemagne (10579): Vitesse du vent & gusts: 09.09.2019 12:00:00 - 15.09.2019 12:00:00 (CEST)Marienberg, Allemagne (10579): Direction du vent: 09.09.2019 12:00:00 - 15.09.2019 12:00:00 (CEST)Marienberg, Allemagne (10579): reduced air pressure: 09.09.2019 12:00:00 - 15.09.2019 12:00:00 (CEST)Marienberg, Allemagne (10579): visibility: 09.09.2019 12:00:00 - 15.09.2019 12:00:00 (CEST)Marienberg, Allemagne (10579): Ensoleillement: 09.09.2019 12:00:00 - 15.09.2019 12:00:00 (CEST)Marienberg, Allemagne (10579): Quantités de précipitations: 09.09.2019 12:00:00 - 15.09.2019 12:00:00 (CEST)
Date & Time tt [°C] td [°C] tt 5cm [°C] tt -5cm [°C] tt -20cm [°C] tt -100cm [°C] ff [km/h] ff [knt] fx [km/h] fx [knt] dd ppp [hPa] vv [km] sd [min] rr [mm]
15.09.2019 12:00:00 19,5 11,4 24,7 19,7 14,2 15,9 15 8 32 17 W 1022,0 75 57 0,0
15.09.2019 11:00:00 18,4 13,0 23,1 17,1 14,0 15,9 12 6 30 16 WSW 1022,7 75 60 0,0
15.09.2019 10:00:00 16,2 12,3 18,6 14,0 14,0 15,9 15 8 27 14 WSW 1023,7 39 60 0,0
15.09.2019 09:00:00 14,6 11,4 13,7 12,1 14,1 15,9 11 6 19 11 SW 1024,3 47 60 0,0
15.09.2019 08:00:00 13,1 10,2 11,9 10,8 14,3 15,9 10 5 18 10 SW 1025,0 46 46 0,0
15.09.2019 07:00:00 12,1 9,0 9,9 10,4 14,4 15,9 9 5 17 9 SW 1025,4 49 0 0,0
15.09.2019 06:00:00 12,1 9,0 10,2 10,4 14,6 15,9 10 5 18 10 SSW 1025,6 57 0 0,0
15.09.2019 05:00:00 11,1 8,5 7,9 10,7 14,8 15,9 6 4 22 12 SW 1026,7 48 0 0,0
15.09.2019 04:00:00 12,4 8,3 10,9 10,9 15,1 15,9 15 8 25 13 SSW 1026,6 55 0 0,0
15.09.2019 03:00:00 12,3 7,7 10,4 10,9 15,3 15,9 10 5 19 11 SSW 1027,3 54 0 0,0
15.09.2019 02:00:00 11,9 7,4 9,3 11,0 15,6 15,9 8 5 16 9 SW 1028,2 55 0 0,0
15.09.2019 01:00:00 11,3 7,3 8,3 11,2 15,9 15,9 5 3 12 6 E 1029,0 46 0 0,0
15.09.2019 00:00:00 9,8 7,3 6,7 11,7 16,2 15,9 5 3 13 7 ESE 1029,8 41 0 0,0
14.09.2019 23:00:00 7,8 6,9 6,3 12,4 16,5 15,9 5 3 8 5 S 1031,1 33 0 0,0
14.09.2019 22:00:00 8,2 7,0 6,6 13,4 16,7 15,9 2 1 4 2 SW 1031,6 35 0 0,0
14.09.2019 21:00:00 9,6 7,5 7,7 14,7 16,9 15,9 0 0 3 2 N 1031,4 45 0 0,0
14.09.2019 20:00:00 11,4 8,7 9,4 16,3 16,9 15,9 3 2 9 5 NE 1030,8 41 0 0,0
14.09.2019 19:00:00 14,0 8,2 12,6 18,6 16,8 15,9 5 3 10 5 N 1030,1 57 39 0,0
14.09.2019 18:00:00 16,1 8,0 16,3 20,6 16,6 15,9 5 3 10 5 NE 1029,3 60 47 0,0
14.09.2019 17:00:00 16,1 7,1 17,6 22,0 16,2 15,9 6 3 14 8 NNE 1029,9 65 50 0,0
14.09.2019 16:00:00 16,3 7,4 19,6 22,2 15,8 15,9 8 4 16 9 NNE 1030,7 53 42 0,0
14.09.2019 15:00:00 15,6 7,8 17,2 22,4 15,3 15,9 6 3 16 9 NNE 1031,7 46 34 0,0
14.09.2019 14:00:00 16,1 6,5 21,4 21,8 14,8 16,0 6 3 18 10 N 1031,8 50 34 0,0
14.09.2019 13:00:00 16,1 7,8 22,8 21,0 14,4 16,0 6 4 16 8 NW 1032,3 64 48 0,0
14.09.2019 12:00:00 14,0 7,6 16,0 18,5 14,1 16,0 6 4 12 7 NW 1033,2 50 36 0,0
14.09.2019 11:00:00 14,1 8,2 17,9 15,3 14,0 16,0 3 1 9 5 N 1033,2 38 39 0,0
14.09.2019 10:00:00 13,3 6,8 16,5 13,3 14,1 16,0 5 3 13 7 ESE 1033,3 75 60 0,0
14.09.2019 09:00:00 11,4 6,9 9,8 11,4 14,2 16,0 4 2 8 4 ENE 1034,5 59 60 0,0
14.09.2019 08:00:00 9,1 7,8 7,9 10,0 14,5 16,0 3 2 5 3 E 1034,8 38 33 0,0
14.09.2019 07:00:00 8,1 7,7 5,7 10,1 14,7 16,0 4 2 8 5 S 1034,7 44 0 0,0
14.09.2019 06:00:00 7,6 7,2 6,2 10,4 14,9 16,0 2 1 6 4 SW 1034,8 32 0 0,0
14.09.2019 05:00:00 8,7 8,2 7,3 11,1 15,1 16,0 2 1 6 3 E 1034,0 34 0 0,0
14.09.2019 04:00:00 9,0 8,0 6,3 11,4 15,3 16,0 3 2 9 5 SE 1034,3 38 0 0,0
14.09.2019 03:00:00 10,7 9,3 8,7 12,3 15,5 16,0 6 4 10 5 NNE 1033,9 58 0 0,0
14.09.2019 02:00:00 11,9 9,5 10,2 13,5 15,6 16,0 6 3 14 8 N 1033,5 63 0 0,0
14.09.2019 01:00:00 13,0 11,5 12,3 14,2 15,7 16,0 7 4 12 6 NNE 1033,2 46 0 0,0
14.09.2019 00:00:00 13,6 11,8 13,2 14,4 15,8 16,0 6 4 14 8 N 1033,0 51 0 0,0
13.09.2019 23:00:00 14,0 11,9 13,2 14,8 15,8 16,0 4 2 16 9 W 1032,5 53 0 0,0
13.09.2019 22:00:00 14,6 12,2 14,4 15,3 15,9 16,0 7 4 16 9 NNW 1032,0 47 0 0,0
13.09.2019 21:00:00 14,9 12,6 14,6 15,6 15,9 16,0 6 4 14 8 NNW 1031,6 39 0 0,0
13.09.2019 20:00:00 15,5 13,0 15,1 16,1 15,9 16,0 7 4 24 13 NNW 1030,9 43 0 0,0
13.09.2019 19:00:00 16,8 13,1 16,4 17,0 15,8 16,0 10 5 18 10 W 1030,0 48 10 0,0
13.09.2019 18:00:00 17,1 12,7 16,9 17,7 15,7 16,0 11 6 23 12 WNW 1029,9 56 4 0,0
13.09.2019 17:00:00 17,7 13,2 19,1 18,3 15,5 16,0 13 7 26 14 W 1029,6 54 9 0,0
13.09.2019 16:00:00 17,1 13,5 18,7 17,6 15,3 16,1 10 5 26 14 WNW 1030,0 47 0 0,0
13.09.2019 15:00:00 17,0 13,1 17,9 17,4 15,2 16,1 13 7 23 12 WNW 1029,9 67 0 0,0
13.09.2019 14:00:00 17,2 12,8 18,7 17,5 15,0 16,1 13 7 25 13 W 1029,4 68 0 0,0
13.09.2019 13:00:00 16,4 12,8 18,2 16,5 14,8 16,1 15 8 28 15 W 1029,5 53 0 0,0
13.09.2019 12:00:00 16,6 12,2 18,1 16,5 14,7 16,1 14 7 33 18 W 1029,5 63 0 0,0
13.09.2019 11:00:00 16,7 12,6 18,6 16,2 14,5 16,1 16 9 30 16 W 1029,5 37 0 0,0
13.09.2019 10:00:00 16,1 12,7 17,4 15,4 14,5 16,1 10 6 21 11 WSW 1029,2 46 11 0,0
13.09.2019 09:00:00 15,2 12,6 15,7 14,0 14,5 16,1 10 5 19 10 WSW 1029,4 37 28 0,0
13.09.2019 08:00:00 13,8 12,7 13,2 12,7 14,6 16,1 9 5 15 8 WSW 1029,7 37 1 0,0
13.09.2019 07:00:00 12,7 12,1 10,7 12,2 14,7 16,1 7 4 13 7 WSW 1029,8 34 0 0,0
13.09.2019 06:00:00 13,1 12,2 11,8 12,8 14,8 16,1 8 5 14 7 WSW 1029,6 45 0 0,0
13.09.2019 05:00:00 13,5 12,2 12,6 13,0 14,8 16,1 8 4 12 6 WSW 1029,5 62 0 0,0
13.09.2019 04:00:00 13,8 12,3 13,1 12,9 15,0 16,1 8 4 15 8 WSW 1029,5 60 0 0,0
13.09.2019 03:00:00 13,5 12,1 12,5 12,7 15,1 16,1 8 5 13 7 WSW 1029,6 57 0 0,0
13.09.2019 02:00:00 12,7 11,7 11,6 12,2 15,3 16,1 9 5 11 6 WSW 1030,0 61 0 0,0
13.09.2019 01:00:00 11,7 10,8 9,2 12,4 15,5 16,1 6 3 11 6 WSW 1030,3 46 0 0,0
13.09.2019 00:00:00 13,0 11,1 10,5 12,8 15,7 16,2 6 4 11 6 WSW 1030,1 63 0 0,0
12.09.2019 23:00:00 13,2 11,0 10,2 13,1 15,9 16,2 7 4 10 6 WSW 1030,0 63 0 0,0
12.09.2019 22:00:00 13,6 10,9 10,4 13,8 16,1 16,2 6 4 13 7 WSW 1029,8 69 0 0,0
12.09.2019 21:00:00 12,3 10,6 9,9 14,7 16,1 16,2 5 3 9 5 WSW 1030,2 54 0 0,0
12.09.2019 20:00:00 14,7 11,1 11,5 16,2 16,1 16,2 5 3 15 8 WSW 1029,3 75 13 0,0
12.09.2019 19:00:00 17,1 11,1 16,1 18,2 15,9 16,2 8 4 26 14 W 1028,4 67 59 0,0
12.09.2019 18:00:00 17,3 11,2 17,5 19,4 15,7 16,2 14 8 26 14 W 1028,3 73 26 0,0
12.09.2019 17:00:00 17,7 12,2 19,7 20,1 15,4 16,2 9 5 29 15 WSW 1027,9 65 13 0,0
12.09.2019 16:00:00 17,8 11,6 20,0 19,7 15,1 16,2 12 7 28 15 WSW 1028,2 75 2 0,0
12.09.2019 15:00:00 17,7 11,5 20,0 20,2 14,7 16,2 11 6 23 12 WSW 1028,4 55 10 0,0
12.09.2019 14:00:00 17,1 12,2 21,8 19,9 14,3 16,2 10 6 22 12 W 1028,7 75 30 0,0
12.09.2019 13:00:00 16,5 11,8 21,8 17,3 14,1 16,2 14 8 22 12 WSW 1028,7 53 11 0,0
12.09.2019 12:00:00 14,5 11,3 16,4 15,9 13,9 16,2 10 5 23 12 WSW 1029,3 48 0 0,0
12.09.2019 11:00:00 14,1 11,4 15,7 15,2 13,8 16,3 15 8 27 14 WSW 1029,0 43 15 0,0
12.09.2019 10:00:00 12,7 11,6 13,7 13,0 13,8 16,3 11 6 22 12 WSW 1028,9 34 0 0,0
12.09.2019 09:00:00 11,4 11,0 11,5 12,3 13,9 16,3 11 6 21 11 SW 1028,7 10 0 0,2
12.09.2019 08:00:00 11,2 10,2 11,4 11,6 14,0 16,3 12 7 23 13 WSW 1028,1 33 0 0,0
12.09.2019 07:00:00 10,9 9,5 10,6 11,1 14,1 16,3 13 7 24 13 WSW 1027,7 38 0 0,0
12.09.2019 06:00:00 11,7 7,6 10,8 10,9 14,3 16,3 16 8 24 13 W 1026,7 54 0 0,0
12.09.2019 05:00:00 11,5 7,0 10,3 10,4 14,5 16,3 13 7 24 13 WSW 1026,6 57 0 0,0
12.09.2019 04:00:00 11,0 6,4 8,8 10,4 14,7 16,3 9 5 16 9 WSW 1026,5 64 0 0,0
12.09.2019 03:00:00 11,4 6,2 9,3 10,5 15,0 16,3 9 5 18 10 SW 1026,3 54 0 0,0
12.09.2019 02:00:00 11,1 5,9 8,2 10,8 15,2 16,4 9 5 16 9 SW 1026,3 62 0 0,0
12.09.2019 01:00:00 11,3 6,1 8,4 11,3 15,5 16,4 9 5 18 10 SW 1026,0 58 0 0,0
12.09.2019 00:00:00 11,5 6,1 8,3 11,7 15,8 16,4 8 4 15 8 SW 1025,7 58 0 0,0
11.09.2019 23:00:00 11,6 6,5 8,8 12,5 16,1 16,4 8 4 12 7 SSW 1025,7 63 0 0,0
11.09.2019 22:00:00 11,2 7,1 7,6 13,5 16,3 16,4 7 4 13 7 SSW 1025,6 55 0 0,0
11.09.2019 21:00:00 11,6 7,7 8,4 14,8 16,4 16,4 6 3 12 6 SW 1025,1 54 0 0,0
11.09.2019 20:00:00 12,8 7,5 10,2 16,7 16,4 16,4 7 4 12 6 WSW 1024,2 62 20 0,0
11.09.2019 19:00:00 16,1 9,0 13,9 19,2 16,2 16,4 4 2 14 7 W 1022,6 57 55 0,0
11.09.2019 18:00:00 18,8 6,6 19,2 21,4 15,8 16,4 6 3 17 9 W 1021,6 46 60 0,0
11.09.2019 17:00:00 18,9 5,6 20,6 22,6 15,3 16,5 11 6 21 11 WSW 1021,4 69 60 0,0
11.09.2019 16:00:00 18,8 4,6 23,1 23,3 14,7 16,5 9 5 21 11 W 1021,5 75 59 0,0
11.09.2019 15:00:00 18,0 6,4 23,7 22,9 14,1 16,5 10 6 18 10 WSW 1021,9 58 57 0,0
11.09.2019 14:00:00 17,6 7,5 22,7 21,6 13,5 16,5 8 4 16 9 WSW 1022,2 44 48 0,0
11.09.2019 13:00:00 17,5 6,4 23,2 20,4 13,0 16,5 7 4 19 11 WSW 1022,2 63 59 0,0
11.09.2019 12:00:00 16,2 5,2 22,4 18,4 12,6 16,5 7 4 18 10 WSW 1022,8 65 60 0,0
11.09.2019 11:00:00 15,5 6,2 20,2 15,4 12,4 16,5 4 2 10 5 SW 1023,2 72 60 0,0
11.09.2019 10:00:00 13,5 6,8 14,9 12,0 12,4 16,5 3 2 6 4 SW 1023,5 51 60 0,0
11.09.2019 09:00:00 11,4 7,4 11,1 9,5 12,6 16,6 5 3 6 4 WSW 1023,5 53 60 0,0
11.09.2019 08:00:00 6,5 5,4 6,6 7,3 12,8 16,6 5 3 7 4 WSW 1024,7 36 44 0,0
11.09.2019 07:00:00 4,3 3,9 2,3 7,0 13,1 16,6 5 3 7 4 WSW 1025,0 6 0 0,0
11.09.2019 06:00:00 4,8 4,6 2,1 7,3 13,3 16,6 5 3 6 3 WSW 1024,3 22 0 0,0
11.09.2019 05:00:00 4,7 4,1 2,5 7,7 13,6 16,6 0 0 7 4 N 1024,1 24 0 0,0
11.09.2019 04:00:00 5,3 4,7 3,2 8,1 13,8 16,6 4 2 8 4 WSW 1023,9 25 0 0,0
11.09.2019 03:00:00 5,5 5,0 3,5 8,6 14,1 16,7 7 4 8 5 WSW 1023,9 20 0 0,0
11.09.2019 02:00:00 6,1 5,3 3,7 9,1 14,4 16,7 6 4 9 5 WSW 1023,4 30 0 0,0
11.09.2019 01:00:00 6,2 5,6 4,2 9,7 14,7 16,7 8 4 8 5 WSW 1023,0 24 0 0,0
11.09.2019 00:00:00 6,8 6,1 4,9 10,3 14,9 16,7 5 3 9 5 WSW 1022,6 30 0 0,0
10.09.2019 23:00:00 6,8 6,1 5,0 11,0 15,2 16,7 3 2 5 3 W 1022,7 26 0 0,0
10.09.2019 22:00:00 7,4 6,7 5,4 12,0 15,4 16,7 3 2 4 2 SW 1022,3 28 0 0,0
10.09.2019 21:00:00 8,5 7,4 6,7 13,2 15,5 16,7 3 2 8 4 WSW 1021,5 34 0 0,0
10.09.2019 20:00:00 10,5 8,6 8,7 14,9 15,5 16,8 2 1 4 2 SW 1020,1 38 14 0,0
10.09.2019 19:00:00 13,7 9,3 13,1 16,4 15,4 16,8 0 0 9 5 N 1018,8 43 20 0,0
10.09.2019 18:00:00 14,0 6,7 14,4 17,3 15,3 16,8 4 2 12 6 NW 1018,6 55 4 0,0
10.09.2019 17:00:00 13,9 6,5 14,6 18,7 14,9 16,8 7 4 16 9 NW 1018,3 49 7 0,0
10.09.2019 16:00:00 14,8 4,0 17,0 20,7 14,5 16,8 10 5 24 13 WSW 1017,7 59 44 0,0
10.09.2019 15:00:00 15,3 5,2 20,7 20,3 14,1 16,8 13 7 24 13 W 1017,3 43 49 0,0
10.09.2019 14:00:00 14,5 4,4 18,5 19,8 13,6 16,8 11 6 22 12 WSW 1017,4 54 26 0,0
10.09.2019 13:00:00 14,4 7,7 20,2 21,1 13,0 16,9 13 7 23 12 W 1017,2 59 58 0,0
10.09.2019 12:00:00 13,3 7,0 19,2 18,7 12,6 16,9 11 6 22 12 W 1017,4 50 48 0,0
10.09.2019 11:00:00 12,5 8,4 17,2 16,8 12,4 16,9 11 6 22 12 SW 1017,5 36 59 0,0
10.09.2019 10:00:00 11,2 8,3 14,7 13,8 12,3 16,9 10 5 18 10 W 1017,5 24 59 0,0
10.09.2019 09:00:00 9,8 7,9 10,7 11,4 12,3 16,9 10 6 18 10 SW 1017,2 17 60 0,0
10.09.2019 08:00:00 8,9 7,8 8,7 9,6 12,4 16,9 9 5 16 9 WSW 1016,9 14 25 0,0
10.09.2019 07:00:00 8,4 7,8 7,9 8,9 12,5 16,9 9 5 19 10 SW 1016,7 7 0 0,0
10.09.2019 06:00:00 8,2 7,7 7,9 8,4 12,6 16,9 10 6 18 10 WSW 1016,2 7 0 0,0
10.09.2019 05:00:00 8,4 7,9 7,2 8,7 12,7 16,9 12 6 22 12 WSW 1015,4 7 0 0,0
10.09.2019 04:00:00 8,7 8,2 7,7 9,6 12,7 17,0 13 7 21 12 W 1015,2 7 0 0,0
10.09.2019 03:00:00 9,2 8,7 8,9 10,0 12,8 17,0 11 6 20 11 W 1014,9 8 0 0,0
10.09.2019 02:00:00 9,3 8,8 9,1 10,0 12,8 17,0 9 5 20 11 WSW 1014,8 6 0 0,0
10.09.2019 01:00:00 9,1 8,7 9,1 10,0 12,9 17,0 10 5 23 12 W 1014,5 7 0 0,0
10.09.2019 00:00:00 8,8 8,5 8,8 9,8 13,0 17,0 11 6 24 13 W 1014,0 6 0 0,1
09.09.2019 23:00:00 8,6 8,2 8,4 9,9 13,0 17,0 11 6 27 15 W 1014,4 14 0 0,4
09.09.2019 22:00:00 8,7 8,3 8,7 9,9 13,1 17,0 15 8 29 16 W 1014,5 11 0 0,4
09.09.2019 21:00:00 8,7 8,2 8,7 10,0 13,2 17,0 16 9 33 18 W 1014,0 12 0 0,6
09.09.2019 20:00:00 8,9 8,5 8,8 10,0 13,4 17,0 18 10 44 24 W 1012,9 14 0 0,4
09.09.2019 19:00:00 8,6 8,2 8,7 10,0 13,5 17,0 17 9 44 24 WNW 1012,2 6 0 2,6
09.09.2019 18:00:00 8,3 7,9 8,3 10,2 13,7 17,0 21 12 42 23 WNW 1012,1 12 0 3,2
09.09.2019 17:00:00 8,5 8,1 8,7 10,7 13,8 17,1 23 13 44 24 W 1011,3 6 0 3,8
09.09.2019 16:00:00 8,4 8,1 8,7 11,1 13,9 17,1 18 10 40 22 WNW 1010,7 6 0 2,3
09.09.2019 15:00:00 9,2 8,9 9,6 11,8 14,0 17,1 20 11 38 21 WNW 1010,1 9 0 4,4
09.09.2019 14:00:00 9,7 9,5 10,2 12,0 14,1 17,1 16 9 35 19 WNW 1009,7 6 0 6,3
09.09.2019 13:00:00 9,9 9,7 10,4 12,0 14,2 17,1 10 5 24 13 NW 1009,1 6 0 4,9
09.09.2019 12:00:00 9,7 9,4 10,1 12,0 14,3 17,1 8 4 16 9 NNW 1009,4 2,9 0 3,6

tt = Température de l'air
td = dewpoint
tt 5cm = Température de l'air 5cm
tt -5cm = Température de l'air -5cm
tt -20cm = Température de l'air -20cm
tt -100cm = Température de l'air -100cm
ff = Vitesse du vent
fx = gusts
dd = Direction du vent
ppp = reduced air pressure
vv = visibility
sd = Ensoleillement
rr = Quantités de précipitations

stations d'obs. à proximité